Back to catalog

FENGYUN 1C DEB

AliveSSO
NORAD 35104·DEBRIS·🇨🇳 China

Launched May 10, 1999 from Taiyuan Satellite Launch Center

Loading…

Next Passes (next 24 hours)

TLE

FreshSource: Space-Track

Epoch: Sep 14, 2026, 06:45 UTC

1 35104U 99025DKG 26257.28188168  .00000462  00000-0  23274-3 0  9995
2 35104  98.5979 261.3983 0031830  66.0372 307.5902 14.20744914936799

Track FENGYUN 1C DEB in real time with AllMySat

Download on the App Store